Temperature
0 0 -0 -0 -1 -1 -2 -2 -1 -0 -0 0 -1 -2 -1 -1 -2 -2 -2 -2 -3 -3 -3 -3 -3 -4 -4 -4 -4 -4 -4 -4 -4 -4 -4 -4 -4 -4 -4 -4 -4 -4 -4 -4
-2 -0 -1 -1 -1 -1 -2 -2 -2 -1 -1 -1 -1 -0 -1 -2 -2 -2 -3 -3 -3 -4 -4 -4 -4 -4 -4 -4 -5 -5 -5 -5 -5 -5 -5 -5 -5 -5 -5 -5 -4 -4 -4 -4
-1 -1 -1 -1 -2 -2 -2 -2 -2 -2 -2 -2 -2 -2 -2 -2 -3 -3 -3 -3 -4 -4 -4 -4 -4 -5 -5 -5 -5 -5 -5 -5 -5 -5 -5 -5 -5 -5 -5 -5 -5 -5 -5 -5
-2 -2 -1 -0 -2 -2 -2 -3 -3 -3 -3 -3 -3 -2 -2 -2 -3 -3 -4 -4 -4 -5 -5 -5 -5 -5 -5 -5 -6 -6 -6 -6 -6 -6 -6 -6 -6 -6 -6 -6 -6 -6 -6 -5
-2 -2 -1 -1 -2 -3 -3 -4 -3 -3 -4 -3 -3 -3 -3 -3 -3 -4 -4 -5 -5 -5 -5 -5 -6 -6 -6 -6 -6 -6 -6 -6 -6 -6 -6 -6 -6 -6 -6 -6 -6 -6 -6 -6
-2 -2 -1 -1 -3 -3 -3 -4 -3 -3 -4 -4 -4 -5 -4 -3 -4 -5 -5 -5 -5 -6 -6 -6 -6 -6 -6 -6 -6 -7 -7 -7 -7 -7 -7 -7 -7 -7 -7 -7 -7 -7 -7 -6
-3 -3 -2 -3 -4 -4 -3 -2 -3 -3 -4 -4 -5 -5 -4 -5 -5 -5 -5 -6 -6 -6 -7 -7 -7 -7 -7 -7 -7 -7 -7 -7 -7 -7 -7 -7 -7 -7 -7 -7 -7 -7 -7 -7
-4 -3 -2 -4 -5 -4 -4 -4 -4 -4 -4 -5 -5 -5 -5 -6 -6 -6 -6 -6 -6 -7 -7 -7 -7 -7 -7 -7 -8 -8 -7 -7 -7 -7 -7 -8 -8 -8 -8 -8 -8 -8 -8 -8
-3 -3 -3 -3 -4 -3 -4 -4 -5 -5 -5 -5 -6 -6 -6 -6 -6 -6 -7 -7 -7 -8 -8 -8 -8 -8 -8 -8 -8 -8 -8 -8 -8 -8 -8 -8 -8 -8 -8 -8 -8 -8 -8 -8
-4 -4 -3 -3 -3 -4 -4 -5 -5 -5 -6 -6 -6 -7 -7 -7 -7 -7 -7 -8 -8 -8 -8 -8 -8 -9 -9 -9 -9 -9 -8 -8 -8 -8 -8 -8 -8 -8 -9 -8 -8 -9 -9 -9
-5 -5 -4 -4 -4 -4 -5 -5 -6 -6 -6 -7 -7 -7 -7 -8 -8 -8 -8 -8 -9 -9 -9 -9 -9 -9 -9 -9 -9 -9 -9 -9 -9 -9 -9 -9 -9 -9 -9 -9 -9 -9 -9 -9
-5 -5 -5 -5 -5 -5 -6 -6 -6 -7 -7 -7 -7 -8 -8 -8 -8 -9 -9 -9 -9 -9 -10 -10 -10 -9 -10 -10 -10 -10 -10 -10 -10 -10 -10 -10 -9 -9 -9 -10 -10 -10 -9 -9
-5 -5 -5 -6 -6 -6 -7 -7 -7 -7 -7 -8 -8 -8 -9 -9 -9 -9 -9 -10 -10 -10 -10 -10 -10 -10 -10 -10 -10 -10 -10 -10 -10 -10 -10 -10 -10 -10 -10 -10 -10 -10 -10 -10
-5 -6 -6 -7 -7 -7 -7 -7 -8 -8 -8 -8 -9 -9 -9 -9 -9 -10 -10 -10 -10 -10 -10 -10 -10 -10 -11 -11 -11 -11 -11 -11 -11 -11 -10 -10 -10 -10 -10 -10 -10 -10 -10 -10
-6 -6 -7 -7 -8 -8 -8 -8 -8 -8 -9 -9 -9 -9 -10 -10 -10 -10 -10 -11 -11 -11 -11 -11 -11 -11 -11 -11 -11 -11 -11 -11 -11 -11 -11 -11 -11 -11 -11 -11 -11 -11 -11 -10
-7 -7 -8 -8 -8 -8 -9 -9 -9 -9 -9 -9 -10 -10 -10 -10 -11 -11 -11 -11 -11 -11 -11 -11 -11 -11 -11 -11 -11 -11 -11 -11 -11 -11 -11 -11 -11 -11 -11 -11 -11 -11 -11 -11
-8 -8 -8 -9 -9 -9 -9 -9 -9 -10 -10 -10 -10 -10 -11 -11 -11 -11 -11 -12 -12 -12 -12 -12 -12 -12 -12 -12 -12 -12 -12 -12 -12 -12 -12 -12 -12 -12 -12 -12 -12 -12 -12 -12
-8 -8 -9 -9 -9 -9 -9 -9 -10 -10 -10 -10 -11 -11 -11 -11 -11 -12 -12 -12 -12 -12 -12 -12 -12 -12 -12 -12 -12 -12 -12 -12 -12 -12 -12 -12 -12 -12 -12 -12 -12 -12 -12 -12
-9 -9 -9 -9 -9 -9 -10 -10 -10 -10 -10 -11 -11 -11 -11 -12 -12 -12 -12 -12 -12 -12 -12 -13 -13 -13 -13 -13 -13 -13 -13 -13 -13 -13 -13 -13 -13 -13 -13 -13 -13 -13 -13 -13
-9 -9 -9 -9 -10 -10 -10 -10 -10 -11 -11 -11 -11 -11 -12 -12 -12 -12 -13 -13 -13 -13 -13 -13 -13 -13 -13 -13 -13 -13 -13 -13 -13 -13 -13 -13 -13 -13 -13 -13 -13 -13 -13 -13
-9 -10 -10 -10 -10 -10 -10 -10 -11 -11 -11 -11 -12 -12 -12 -12 -12 -13 -13 -13 -13 -13 -13 -13 -13 -13 -13 -13 -13 -13 -13 -13 -13 -14 -14 -14 -14 -14 -14 -14 -14 -14 -14 -14
-10 -10 -10 -10 -10 -10 -11 -11 -11 -11 -12 -12 -12 -12 -12 -12 -13 -13 -13 -13 -13 -13 -13 -13 -13 -13 -14 -14 -14 -14 -14 -14 -14 -14 -14 -14 -14 -14 -14 -14 -14 -14 -14 -14
-10 -10 -10 -11 -11 -11 -11 -11 -12 -12 -12 -12 -12 -12 -12 -13 -13 -13 -13 -13 -13 -13 -13 -13 -14 -14 -14 -14 -14 -14 -14 -14 -14 -14 -15 -15 -15 -15 -15 -15 -15 -14 -14 -14
-10 -11 -11 -11 -11 -11 -11 -12 -12 -12 -12 -12 -13 -13 -13 -13 -13 -13 -13 -13 -14 -14 -14 -14 -14 -14 -14 -14 -14 -14 -14 -15 -15 -15 -15 -15 -15 -15 -15 -15 -15 -15 -15 -15
-11 -11 -11 -11 -12 -12 -12 -12 -12 -12 -12 -13 -13 -13 -13 -13 -13 -13 -14 -14 -14 -14 -14 -14 -14 -14 -14 -14 -14 -15 -15 -15 -15 -15 -15 -15 -15 -15 -15 -15 -15 -15 -15 -15
-11 -12 -12 -12 -12 -12 -12 -12 -13 -13 -13 -13 -13 -13 -13 -13 -14 -14 -14 -14 -14 -14 -14 -14 -14 -14 -14 -15 -15 -15 -15 -15 -15 -15 -16 -16 -16 -16 -16 -15 -15 -15 -15 -15
-12 -12 -12 -12 -12 -13 -13 -13 -13 -13 -13 -14 -14 -14 -14 -14 -14 -14 -14 -14 -14 -14 -14 -15 -15 -15 -15 -15 -15 -15 -15 -15 -16 -16 -16 -16 -16 -16 -16 -16 -16 -15 -15 -15
Wind_Speed
9 7 6 8 10 9 11 10 9 9 11 12 8 5 4 3 4 3 3 3 2 2 3 3 2 2 2 2 2 2 3 4 5 4 4 4 4 4 4 4 5 4 5 5
7 7 6 9 11 11 11 10 12 13 14 10 6 4 3 3 4 4 4 3 2 3 3 3 3 3 2 2 3 2 3 4 4 4 4 4 4 4 4 4 4 4 5 5
5 2 5 8 9 10 6 7 7 11 10 5 5 4 4 3 3 4 3 2 2 3 3 3 3 2 3 3 3 3 3 4 4 4 4 4 5 4 5 4 4 5 5 5
4 3 7 6 1 4 6 7 6 7 7 5 5 5 4 3 2 3 2 2 3 3 3 3 2 2 2 2 3 3 4 4 3 4 4 4 4 5 5 4 4 5 5 5
3 5 8 4 1 2 3 6 4 6 6 5 5 5 3 1 2 2 2 2 2 2 3 3 3 2 2 2 2 3 3 4 3 3 4 4 5 5 5 4 5 5 5 5
4 4 6 4 0 1 2 5 4 3 5 4 3 3 4 2 3 3 2 2 2 2 2 3 3 2 2 3 3 3 4 4 4 4 5 5 5 5 5 4 5 5 6 5
6 6 7 2 1 2 1 5 5 3 3 2 2 4 4 4 4 3 2 2 2 2 3 3 3 2 2 3 3 4 4 4 4 4 5 5 5 4 4 4 4 5 6 5
4 6 7 2 3 4 4 3 4 3 2 2 3 3 4 3 3 3 3 2 2 2 3 3 3 2 2 3 3 3 3 4 4 4 4 4 4 4 4 4 4 4 4 4
7 7 2 4 4 2 1 3 3 4 3 3 3 4 4 4 4 3 2 2 2 2 3 3 3 3 3 4 3 3 4 4 5 5 4 4 4 4 4 3 3 3 3 4
5 7 4 3 2 2 2 3 4 3 3 2 3 4 5 4 3 3 2 2 2 2 3 4 4 4 3 4 3 3 4 4 4 4 4 4 3 3 3 3 3 3 3 4
6 6 5 3 2 3 3 3 3 3 3 3 3 4 4 4 3 2 2 2 2 2 3 4 4 4 4 4 3 3 4 4 4 4 3 3 2 2 3 3 4 4 4 4
6 3 3 4 3 3 3 4 4 3 4 3 2 3 3 3 3 2 2 2 3 3 3 4 4 4 5 4 3 3 4 4 3 3 3 2 2 3 5 5 6 7 7 6
5 3 3 4 3 2 2 3 3 2 2 3 3 2 2 3 3 3 3 3 3 3 3 4 4 5 5 4 4 4 4 4 4 4 3 3 2 2 3 5 6 7 7 7
4 3 4 3 2 2 2 2 2 2 2 2 2 2 2 2 3 3 3 3 3 3 4 4 4 5 5 5 4 4 4 5 5 3 3 3 2 2 2 3 4 4 6 7
3 3 4 2 2 2 2 2 2 2 3 3 3 2 2 2 3 3 3 4 4 4 4 4 5 5 5 5 5 5 4 3 3 3 3 3 3 2 2 3 3 3 3 5
3 2 2 2 2 2 2 1 2 2 2 2 2 3 2 2 2 3 3 3 3 4 5 5 5 6 6 5 5 4 4 7 6 3 3 3 3 3 3 3 3 3 3 4
2 3 2 2 3 3 2 2 1 1 2 2 2 2 3 3 3 3 3 3 3 4 5 5 6 6 6 5 4 4 4 5 7 5 3 3 3 3 3 3 3 3 3 5
2 2 2 2 2 2 2 2 1 1 1 2 2 2 2 2 3 4 4 4 4 5 5 5 5 5 5 5 4 4 4 3 3 3 3 3 4 3 3 3 4 4 4 5
2 2 1 1 1 1 1 1 1 1 2 1 1 2 2 3 3 4 4 4 4 5 6 6 8 6 5 6 6 3 4 4 4 4 3 5 5 4 3 3 4 4 4 4
3 2 2 2 2 1 1 1 1 2 2 2 1 2 3 3 3 3 3 3 3 4 5 6 6 5 5 5 6 3 4 4 4 4 4 4 4 4 4 4 4 4 4 4
2 2 2 2 2 2 1 1 1 1 2 1 1 2 3 3 3 3 3 4 4 5 5 7 5 4 5 5 6 3 3 4 3 3 4 4 4 4 4 4 5 5 5 5
2 2 2 2 2 2 2 1 1 1 1 2 2 2 3 3 4 3 3 3 5 7 5 4 4 6 8 7 3 3 3 4 3 3 3 4 4 4 4 5 5 5 5 5
2 2 2 1 1 1 1 1 1 1 1 2 2 3 3 3 3 3 4 4 3 7 6 4 7 10 11 5 3 4 4 4 4 4 4 4 4 4 5 5 5 5 5 5
2 2 1 1 1 1 2 2 2 1 2 2 2 3 3 3 3 3 3 6 8 9 5 8 11 11 9 4 4 4 4 4 4 4 4 4 4 4 5 5 5 5 5 6
1 1 1 1 1 1 2 2 2 2 2 2 3 3 2 2 3 4 4 4 8 8 5 8 11 11 7 4 4 4 4 4 5 4 4 4 4 5 5 5 5 5 5 6
1 1 1 1 1 1 1 1 2 2 2 3 3 3 3 2 3 3 3 4 6 8 6 5 5 7 5 4 4 5 4 5 6 5 5 5 5 5 5 6 7 6 6 6
2 1 1 1 1 1 1 1 2 2 3 3 4 3 3 3 3 4 4 4 4 5 4 4 4 4 5 5 5 5 5 4 5 5 5 5 5 5 6 7 7 7 7 7
Wind_Direction
270 276 265 259 250 222 220 227 236 258 265 278 278 265 261 255 260 263 264 277 292 298 304 298 288 286 284 283 281 279 266 264 266 270 275 275 273 273 274 270 274 271 271 264
278 257 253 265 255 236 235 240 247 265 274 277 281 272 266 254 256 260 260 264 282 302 309 290 287 289 292 290 286 272 262 270 274 274 276 276 277 277 278 273 271 275 272 266
271 291 303 268 241 218 221 224 221 244 259 292 299 281 263 255 255 255 261 269 278 292 298 293 280 284 282 283 285 277 271 270 274 272 272 275 285 283 277 275 275 274 269 262
279 317 256 244 207 191 216 243 235 256 279 298 297 300 279 254 261 271 283 293 294 300 308 312 293 293 286 285 276 272 272 272 268 270 272 273 274 275 275 277 273 272 273 267
250 267 272 269 219 163 208 270 252 249 275 304 331 333 295 281 359 310 289 294 297 303 304 312 305 288 289 284 277 274 272 269 269 266 269 269 269 271 275 276 275 275 277 272
238 254 257 262 26 47 112 280 289 250 264 289 354 307 281 339 350 335 336 339 332 336 328 316 311 300 292 286 284 281 280 277 271 265 265 265 266 270 273 273 275 280 283 277
237 247 266 276 158 116 176 272 315 291 268 262 243 254 286 326 332 331 329 336 350 342 321 311 314 312 293 294 290 292 297 294 281 271 267 267 267 270 267 272 272 275 278 275
213 230 256 158 140 190 241 318 331 323 311 296 293 304 314 319 318 321 326 345 354 334 324 324 325 320 308 304 306 313 307 300 294 282 276 278 267 270 266 260 263 268 273 281
209 227 252 172 201 237 317 310 312 315 309 302 297 298 305 310 312 317 318 335 347 338 330 334 337 337 320 315 321 320 316 309 304 301 291 283 270 264 261 251 251 266 271 279
259 266 269 235 240 291 308 293 304 305 300 290 286 293 303 306 313 321 330 344 352 348 330 328 337 338 326 322 327 322 316 313 309 304 298 292 284 275 262 251 252 261 271 280
255 278 299 278 278 298 315 322 323 323 311 295 293 299 302 307 313 325 339 351 351 334 322 325 337 340 335 335 336 327 318 314 314 312 304 301 304 299 284 264 258 260 259 266
250 264 256 283 321 333 317 308 308 312 317 323 312 301 314 319 327 337 345 350 346 342 336 334 338 337 336 336 337 331 325 323 319 315 311 303 301 318 323 311 307 303 297 287
251 279 281 280 305 338 311 304 317 319 311 321 338 336 335 335 343 353 355 353 342 339 338 338 339 336 335 337 336 331 319 318 316 316 314 308 303 302 310 321 325 322 316 309
272 289 290 294 305 329 326 327 344 354 352 345 352 6 6 356 359 1 348 342 345 347 346 344 341 335 336 338 337 331 323 319 321 319 318 311 302 298 299 303 312 317 317 318
303 281 261 293 330 345 346 352 355 351 358 3 9 10 5 352 342 341 342 346 351 350 344 341 338 334 338 340 337 331 326 325 322 320 322 320 321 316 309 306 305 309 316 320
311 299 283 300 312 323 334 335 322 322 344 350 355 353 349 342 340 343 347 354 350 337 335 336 332 333 339 341 337 330 324 326 332 331 330 333 332 328 324 319 316 316 316 317
296 290 295 305 306 308 309 307 302 309 331 335 332 341 349 350 349 347 345 344 336 326 328 329 328 332 336 334 329 326 327 329 332 333 335 330 325 325 326 326 323 321 317 315
285 272 251 245 271 301 322 335 340 335 327 319 339 351 348 341 329 327 330 333 335 332 329 326 328 331 328 328 328 325 326 330 331 328 331 334 333 332 330 328 329 325 321 320
7 356 356 13 5 4 341 347 340 343 349 358 0 343 332 326 326 330 334 333 330 324 327 330 332 334 330 330 332 326 327 327 327 329 333 331 336 339 336 334 331 329 327 326
21 28 33 34 35 33 15 7 15 10 358 3 6 349 337 332 331 327 324 314 303 301 314 326 331 329 324 325 329 324 324 326 330 336 338 336 333 333 333 328 325 323 324 326
17 27 29 27 26 22 19 25 33 3 349 357 343 316 312 315 317 317 319 312 312 316 319 324 329 321 319 321 324 328 328 328 331 334 330 327 325 324 323 322 322 322 323 325
9 17 11 13 27 16 8 20 29 1 346 337 324 318 316 317 318 311 292 288 307 325 332 323 321 321 325 326 329 329 327 328 329 329 326 323 320 318 317 317 317 317 319 320
4 6 0 0 4 356 3 11 5 350 324 313 311 310 307 304 307 309 311 316 320 325 330 318 320 323 325 334 335 330 328 327 323 320 317 316 315 315 312 310 310 312 314 314
360 356 350 360 30 31 358 339 332 324 307 298 296 296 302 309 311 297 294 319 328 326 323 321 329 331 334 344 334 329 325 321 317 314 313 312 311 311 310 310 308 308 306 306
346 337 352 12 349 318 319 334 342 334 327 321 318 312 298 287 292 309 316 315 319 325 324 327 331 333 338 332 327 322 319 312 309 311 313 314 313 311 309 308 306 303 302 302
334 325 305 282 284 309 331 336 328 327 332 330 327 326 326 323 313 312 315 315 315 323 327 323 324 327 329 324 320 317 315 315 318 319 314 310 309 307 307 307 305 303 300 299
349 349 352 349 350 354 345 335 327 324 325 321 321 326 331 331 329 326 323 321 320 321 320 319 320 320 319 319 317 315 314 312 310 309 307 304 303 303 304 303 303 302 301 298
Height
1499 1496 1497 1496 1496 1497 1499 1496 1494 1483 1479 1472 1471 1471 1470 1470 1469 1469 1469 1468 1468 1468 1467 1466 1466 1465 1464 1464 1464 1464 1464 1464 1464 1464 1464 1464 1464 1463 1463 1463 1463 1462 1462 1462
1500 1494 1493 1492 1489 1490 1490 1490 1487 1482 1477 1469 1469 1468 1468 1467 1466 1465 1465 1465 1465 1465 1464 1462 1462 1461 1460 1460 1460 1460 1460 1459 1459 1459 1459 1459 1458 1458 1458 1457 1457 1457 1457 1456
1498 1492 1492 1488 1482 1483 1484 1480 1480 1479 1472 1467 1467 1466 1465 1464 1464 1464 1463 1463 1462 1461 1460 1459 1458 1457 1456 1456 1456 1455 1455 1454 1454 1454 1454 1454 1454 1453 1453 1452 1452 1452 1451 1451
1500 1496 1493 1476 1473 1473 1476 1475 1474 1471 1469 1466 1465 1464 1463 1462 1462 1461 1460 1459 1459 1458 1456 1455 1454 1453 1453 1452 1451 1451 1450 1449 1449 1449 1449 1449 1448 1448 1448 1447 1447 1446 1446 1446
1499 1495 1482 1474 1473 1473 1475 1473 1469 1468 1466 1465 1464 1462 1460 1460 1460 1459 1458 1457 1456 1455 1454 1452 1451 1450 1449 1448 1447 1447 1446 1445 1445 1445 1444 1444 1443 1443 1442 1442 1442 1441 1441 1441
1497 1494 1484 1473 1474 1471 1474 1474 1465 1464 1464 1463 1463 1464 1460 1457 1457 1456 1455 1454 1453 1452 1450 1449 1447 1446 1445 1444 1443 1443 1442 1442 1441 1441 1440 1439 1438 1438 1438 1438 1437 1437 1436 1436
1497 1492 1480 1475 1473 1473 1477 1471 1465 1463 1462 1462 1462 1461 1458 1456 1455 1454 1453 1451 1450 1449 1447 1446 1444 1443 1441 1440 1440 1439 1438 1438 1437 1436 1436 1435 1434 1434 1433 1433 1433 1432 1432 1432
1493 1490 1481 1474 1473 1474 1471 1466 1464 1462 1461 1460 1459 1457 1456 1454 1452 1451 1450 1448 1447 1446 1444 1443 1442 1440 1438 1437 1436 1435 1434 1434 1433 1432 1431 1431 1430 1429 1429 1429 1428 1428 1428 1427
1483 1477 1470 1469 1468 1467 1466 1465 1463 1461 1460 1459 1457 1455 1454 1452 1450 1449 1448 1446 1445 1444 1442 1441 1439 1437 1435 1434 1433 1432 1431 1430 1429 1428 1427 1426 1425 1425 1424 1424 1424 1424 1424 1424
1476 1469 1467 1466 1465 1464 1464 1463 1461 1460 1458 1457 1455 1453 1452 1450 1449 1447 1445 1444 1443 1442 1440 1438 1437 1435 1433 1431 1430 1428 1427 1426 1425 1424 1423 1422 1421 1421 1421 1421 1421 1420 1420 1420
1473 1467 1465 1463 1462 1462 1461 1459 1458 1457 1456 1455 1453 1451 1450 1448 1447 1445 1444 1442 1441 1440 1438 1437 1435 1433 1431 1429 1427 1425 1424 1423 1421 1420 1419 1419 1418 1418 1418 1418 1418 1418 1418 1417
1468 1465 1465 1462 1461 1460 1458 1457 1456 1454 1452 1452 1451 1449 1448 1446 1445 1444 1442 1441 1440 1438 1437 1435 1433 1431 1429 1428 1426 1423 1421 1420 1419 1417 1416 1416 1415 1415 1415 1415 1415 1415 1415 1414
1463 1462 1461 1460 1459 1458 1456 1455 1454 1452 1451 1449 1448 1447 1446 1444 1443 1442 1441 1439 1438 1437 1435 1433 1431 1429 1428 1426 1424 1422 1420 1418 1417 1415 1414 1413 1413 1412 1411 1411 1411 1411 1411 1410
1461 1460 1458 1457 1456 1455 1454 1452 1452 1450 1449 1448 1446 1445 1444 1443 1441 1440 1439 1438 1437 1435 1433 1431 1429 1428 1426 1424 1422 1420 1419 1417 1415 1414 1412 1411 1411 1410 1409 1408 1407 1407 1407 1407
1458 1457 1456 1455 1454 1453 1452 1450 1449 1448 1447 1446 1445 1443 1442 1441 1440 1438 1438 1436 1435 1433 1431 1430 1428 1426 1424 1423 1421 1419 1417 1415 1414 1412 1411 1410 1409 1408 1407 1407 1406 1404 1404 1403
1455 1454 1453 1452 1451 1450 1449 1448 1447 1446 1445 1444 1443 1442 1441 1440 1438 1437 1436 1435 1433 1431 1430 1428 1427 1425 1423 1421 1419 1417 1416 1414 1413 1411 1410 1408 1407 1406 1405 1404 1403 1402 1401 1401
1452 1451 1450 1449 1449 1448 1447 1447 1446 1445 1444 1443 1442 1441 1440 1439 1437 1436 1435 1433 1432 1431 1429 1428 1426 1424 1422 1420 1418 1416 1414 1413 1412 1410 1408 1407 1406 1405 1404 1402 1401 1400 1399 1399
1450 1449 1449 1448 1447 1446 1446 1445 1444 1444 1443 1442 1441 1440 1438 1437 1436 1435 1433 1432 1431 1429 1428 1426 1425 1423 1421 1419 1417 1415 1414 1412 1410 1409 1407 1406 1405 1404 1402 1401 1400 1399 1397 1397
1448 1447 1447 1446 1446 1445 1444 1444 1443 1442 1441 1441 1440 1438 1438 1436 1435 1434 1432 1431 1429 1427 1426 1424 1423 1421 1419 1418 1416 1414 1413 1411 1409 1408 1406 1405 1404 1402 1401 1399 1398 1397 1395 1394
1447 1446 1445 1445 1444 1444 1443 1443 1442 1441 1440 1439 1438 1437 1436 1435 1434 1433 1431 1430 1428 1427 1425 1423 1421 1420 1418 1416 1415 1413 1411 1410 1408 1407 1405 1404 1402 1400 1399 1398 1396 1395 1393 1392
1446 1445 1444 1444 1443 1443 1442 1442 1441 1440 1439 1438 1438 1436 1436 1434 1433 1432 1430 1428 1427 1426 1424 1422 1420 1418 1417 1415 1413 1412 1410 1409 1407 1405 1404 1402 1400 1399 1397 1396 1394 1392 1391 1389
1446 1444 1444 1443 1442 1442 1441 1441 1440 1439 1438 1438 1437 1436 1434 1433 1432 1430 1429 1428 1426 1425 1423 1421 1419 1417 1415 1414 1412 1410 1409 1407 1405 1404 1402 1400 1399 1397 1395 1394 1392 1390 1389 1387
1445 1444 1443 1442 1441 1441 1440 1440 1439 1438 1437 1437 1436 1435 1433 1432 1431 1429 1428 1427 1425 1423 1421 1419 1417 1416 1414 1412 1410 1408 1406 1405 1403 1402 1400 1399 1397 1395 1394 1392 1390 1388 1386 1385
1444 1443 1442 1441 1441 1440 1439 1439 1438 1437 1437 1436 1435 1434 1432 1431 1429 1428 1427 1425 1423 1422 1419 1418 1416 1414 1412 1410 1408 1406 1404 1403 1401 1399 1398 1396 1395 1393 1391 1389 1387 1386 1384 1383
1443 1442 1441 1440 1439 1439 1438 1438 1437 1436 1435 1434 1433 1432 1431 1429 1428 1427 1425 1423 1421 1419 1417 1416 1414 1412 1410 1408 1406 1404 1402 1401 1399 1397 1395 1393 1392 1390 1388 1386 1385 1383 1381 1380
1442 1441 1440 1439 1439 1438 1437 1436 1436 1435 1433 1432 1431 1430 1429 1428 1426 1425 1423 1421 1419 1418 1416 1414 1412 1410 1408 1406 1404 1402 1400 1398 1396 1395 1393 1391 1389 1387 1385 1384 1382 1380 1378 1376
1441 1440 1439 1438 1438 1437 1436 1435 1434 1433 1432 1431 1430 1429 1427 1426 1424 1423 1421 1419 1417 1416 1414 1412 1410 1408 1406 1404 1402 1400 1398 1396 1394 1392 1390 1388 1386 1385 1383 1381 1379 1377 1375 1373